COSMOS 2434 (721)

Last updated on Mon Jun 22 2026 00:03:26 GMT+0000 (Coordinated Universal Time)

1 32393U 07065A 26172.51713199 .00000077 00000+0 00000+0 0 9994 2 32393 64.3181 191.7698 0001204 331.4044 208.5317 2.13101233143866
UTC large
Height (km)
Speed (km/s)
/
Latitude / Longitude
Inclination (degrees)
Orbital Period (minutes)
Azimuth
Elevation
Range (km)
Doppler Factor

Next 0 passes for location: London (51.5072 / 0.1276)

No passes found over London.
COSMOS 2434 (721)